Weather History for KS25 - September, 2013

Change the Weather History Date:

Sunday, September 29, 2013

  Actual Average (KISN) Record (KISN)
Temperature  
Mean Temperature 57 °F 50 °F  
Max Temperature 75 °F 65 °F 85 °F (1967)
Min Temperature 39 °F 36 °F 13 °F (1907)
Degree Days  
Heating Degree Days 8 15  
Month to date heating degree days 260  
Since 1 July heating degree days 331  
Cooling Degree Days 0 0  
Month to date cooling degree days 24  
Year to date cooling degree days 453  
Growing Degree Days 7 (Base 50)    
Moisture  
Dew Point 39 °F    
Average Humidity 56    
Maximum Humidity 93    
Minimum Humidity 27    
Precipitation  
Precipitation 0.00 in 0.04 in 0.93 in (1937)
Month to date precipitation 1.03  
Year to date precipitation 12.15  
Sea Level Pressure  
Sea Level Pressure 29.58 in    
Wind  
Wind Speed 5 mph (SW)    
Max Wind Speed 15 mph    
Max Gust Speed 22 mph    
Visibility 10 miles    
Events      
T = Trace of Precipitation, MM = Missing Value Source: NWS Daily Summary

Daily Weather History Graph

Daily Weather History Graph

Search for Another Location

Airport or City:

Trip Planner

Search our weather history database for the weather conditions in past years. The results will help you decide how hot, cold, wet, or windy it might be!

Date:

Astronomy

Sep. 29, 2013 Rise Set
Actual Time 7:49 AM CDT 7:35 PM CDT
Civil Twilight 7:18 AM CDT 8:06 PM CDT
Nautical Twilight 6:42 AM CDT 8:42 PM CDT
Astronomical Twilight 6:06 AM CDT 9:18 PM CDT
Moon 2:13 AM CDT (9/29) 4:50 PM CDT (9/29)
Length of Visible Light 12h 47m
Length of Day
11h 45m
Waning Crescent, 27% of the Moon is Illuminated
Sep 29
Waning Crescent
Oct 4
New
Oct 11
First Quarter
Oct 18
Full
Oct 26
Last Quarter

Hourly Weather History & Observations

Time (CDT) Temp. Windchill Dew Point Humidity Pressure Visibility Wind Dir Wind Speed Gust Speed Precip Events Conditions
12:15 AM 39.2 °F 37.0 °F 35.6 °F 87% 29.73 in 10.0 mi WNW 3.5 mph - N/A   Clear
12:35 AM 39.2 °F - 35.6 °F 87% 29.72 in 10.0 mi Calm Calm - N/A   Clear
12:55 AM 41.0 °F 39.0 °F 35.6 °F 81% 29.71 in 10.0 mi WSW 3.5 mph - N/A   Clear
1:15 AM 41.0 °F 39.0 °F 35.6 °F 81% 29.71 in 10.0 mi SSW 3.5 mph - N/A   Clear
1:35 AM 42.8 °F - 35.6 °F 76% 29.70 in 10.0 mi Calm Calm - N/A   Clear
1:55 AM 41.0 °F - 35.6 °F 81% 29.70 in 10.0 mi Calm Calm - N/A   Clear
2:15 AM 41.0 °F - 35.6 °F 81% 29.70 in 10.0 mi Calm Calm - N/A   Clear
2:35 AM 41.0 °F - 35.6 °F 81% 29.69 in 10.0 mi Calm Calm - N/A   Clear
2:55 AM 39.2 °F - 35.6 °F 87% 29.69 in 10.0 mi Calm Calm - N/A   Clear
3:15 AM 39.2 °F - 37.4 °F 93% 29.67 in 10.0 mi Calm Calm - N/A   Clear
3:35 AM 39.2 °F - 37.4 °F 93% 29.67 in 10.0 mi Calm Calm - N/A   Clear
3:55 AM 41.0 °F - 37.4 °F 87% 29.66 in 10.0 mi Calm Calm - N/A   Clear
4:15 AM 39.2 °F 37.0 °F 37.4 °F 93% 29.65 in 10.0 mi NW 3.5 mph - N/A   Clear
4:35 AM 41.0 °F - 37.4 °F 87% 29.65 in 10.0 mi Calm Calm - N/A   Clear
4:55 AM 41.0 °F - 37.4 °F 87% 29.65 in 10.0 mi Calm Calm - N/A   Clear
5:15 AM 41.0 °F - 37.4 °F 87% 29.65 in 10.0 mi Calm Calm - N/A   Clear
5:35 AM 39.2 °F - 37.4 °F 93% 29.65 in 10.0 mi Calm Calm - N/A   Clear
5:55 AM 42.8 °F - 37.4 °F 81% 29.64 in 10.0 mi Calm Calm - N/A   Clear
6:15 AM 46.4 °F 45.2 °F 37.4 °F 71% 29.63 in 10.0 mi SSW 3.5 mph - N/A   Clear
6:35 AM 48.2 °F - 39.2 °F 71% 29.62 in 10.0 mi SW 6.9 mph - N/A   Clear
6:55 AM 46.4 °F 44.3 °F 37.4 °F 71% 29.62 in 10.0 mi SW 4.6 mph - N/A   Clear
7:15 AM 42.8 °F - 37.4 °F 81% 29.61 in 10.0 mi Calm Calm - N/A   Clear
7:35 AM 44.6 °F 43.1 °F 37.4 °F 76% 29.61 in 10.0 mi SW 3.5 mph - N/A   Clear
7:55 AM 44.6 °F 40.7 °F 37.4 °F 76% 29.61 in 10.0 mi SSW 6.9 mph - N/A   Clear
8:15 AM 50.0 °F - 39.2 °F 66% 29.60 in 10.0 mi SW 6.9 mph - N/A   Clear
8:35 AM 50.0 °F - 39.2 °F 66% 29.60 in 10.0 mi SSW 9.2 mph - N/A   Clear
8:55 AM 51.8 °F - 39.2 °F 62% 29.60 in 10.0 mi SSW 6.9 mph - N/A   Clear
9:15 AM 53.6 °F - 39.2 °F 58% 29.59 in 10.0 mi SSW 9.2 mph - N/A   Clear
9:35 AM 59.0 °F - 39.2 °F 48% 29.59 in 10.0 mi SSW 12.7 mph 19.6 mph N/A   Clear
10:15 AM 60.8 °F - 39.2 °F 45% 29.58 in 10.0 mi SSW 11.5 mph 17.3 mph N/A   Clear
10:35 AM 62.6 °F - 39.2 °F 42% 29.57 in 10.0 mi SSW 15.0 mph 18.4 mph N/A   Clear
10:55 AM 62.6 °F - 39.2 °F 42% 29.57 in 10.0 mi SSW 15.0 mph 19.6 mph N/A   Clear
11:15 AM 64.4 °F - 39.2 °F 40% 29.56 in 10.0 mi SSW 12.7 mph - N/A   Partly Cloudy
11:35 AM 64.4 °F - 39.2 °F 40% 29.55 in 10.0 mi SSW 12.7 mph 20.7 mph N/A   Scattered Clouds
11:55 AM 64.4 °F - 39.2 °F 40% 29.55 in 10.0 mi SSW 12.7 mph 17.3 mph N/A   Mostly Cloudy
12:15 PM 66.2 °F - 39.2 °F 37% 29.55 in 10.0 mi SSW 13.8 mph 17.3 mph N/A   Mostly Cloudy
12:35 PM 66.2 °F - 39.2 °F 37% 29.55 in 10.0 mi SSW 15.0 mph 20.7 mph N/A   Mostly Cloudy
12:55 PM 66.2 °F - 41.0 °F 40% 29.54 in 10.0 mi SSW 12.7 mph - N/A   Mostly Cloudy
1:15 PM 66.2 °F - 41.0 °F 40% 29.53 in 10.0 mi South 9.2 mph 16.1 mph N/A   Mostly Cloudy
1:35 PM 66.2 °F - 41.0 °F 40% 29.51 in 10.0 mi South 13.8 mph - N/A   Scattered Clouds
1:55 PM 71.6 °F - 41.0 °F 33% 29.50 in 10.0 mi South 13.8 mph 19.6 mph N/A   Scattered Clouds
2:15 PM 69.8 °F - 41.0 °F 35% 29.49 in 10.0 mi South 13.8 mph 19.6 mph N/A   Scattered Clouds
2:35 PM 69.8 °F - 41.0 °F 35% 29.49 in 10.0 mi SSW 12.7 mph 19.6 mph N/A   Mostly Cloudy
2:55 PM 71.6 °F - 41.0 °F 33% 29.49 in 10.0 mi SSW 15.0 mph 19.6 mph N/A   Partly Cloudy
3:15 PM 71.6 °F - 41.0 °F 33% 29.49 in 10.0 mi SSW 12.7 mph - N/A   Mostly Cloudy
3:35 PM 71.6 °F - 41.0 °F 33% 29.49 in 10.0 mi SSW 11.5 mph 18.4 mph N/A   Mostly Cloudy
3:55 PM 73.4 °F - 42.8 °F 33% 29.49 in 10.0 mi SSW 12.7 mph - N/A   Partly Cloudy
4:15 PM 73.4 °F - 39.2 °F 29% 29.49 in 10.0 mi WSW 15.0 mph 21.9 mph N/A   Clear
4:35 PM 71.6 °F - 39.2 °F 31% 29.49 in 10.0 mi SW 11.5 mph - N/A   Clear
4:55 PM 73.4 °F - 41.0 °F 31% 29.48 in 10.0 mi SW 10.4 mph - N/A   Clear
5:15 PM 75.2 °F - 39.2 °F 27% 29.48 in 10.0 mi SW 15.0 mph - N/A   Clear
5:35 PM 73.4 °F - 41.0 °F 31% 29.48 in 10.0 mi WSW 8.1 mph - N/A   Clear
5:55 PM 73.4 °F - 37.4 °F 27% 29.49 in 10.0 mi West 12.7 mph 18.4 mph N/A   Clear
6:15 PM 71.6 °F - 39.2 °F 31% 29.49 in 10.0 mi West 11.5 mph - N/A   Clear
6:35 PM 69.8 °F - 39.2 °F 33% 29.50 in 10.0 mi West 6.9 mph - N/A   Clear
6:55 PM 68.0 °F - 41.0 °F 37% 29.50 in 10.0 mi Calm Calm - N/A   Clear
7:15 PM 62.6 °F - 44.6 °F 52% 29.51 in 10.0 mi West 6.9 mph - N/A   Clear
7:35 PM 66.2 °F - 41.0 °F 40% 29.51 in 10.0 mi WNW 11.5 mph - N/A   Clear
7:55 PM 64.4 °F - 41.0 °F 42% 29.52 in 10.0 mi WNW 10.4 mph - N/A   Clear
8:15 PM 62.6 °F - 41.0 °F 45% 29.52 in 10.0 mi West 6.9 mph - N/A   Clear
8:35 PM 60.8 °F - 41.0 °F 48% 29.52 in 10.0 mi SW 5.8 mph - N/A   Clear
8:55 PM 59.0 °F - 41.0 °F 51% 29.53 in 10.0 mi SSW 6.9 mph - N/A   Clear
9:15 PM 57.2 °F - 39.2 °F 51% 29.54 in 10.0 mi SW 8.1 mph - N/A   Clear
9:35 PM 57.2 °F - 39.2 °F 51% 29.54 in 10.0 mi SW 5.8 mph - N/A   Clear
9:55 PM 57.2 °F - 37.4 °F 48% 29.56 in 10.0 mi West 8.1 mph - N/A   Clear
10:15 PM 57.2 °F - 35.6 °F 44% 29.56 in 10.0 mi WSW 4.6 mph - N/A   Clear
10:35 PM 55.4 °F - 37.4 °F 51% 29.56 in 10.0 mi SW 4.6 mph - N/A   Scattered Clouds
10:55 PM 53.6 °F - 37.4 °F 54% 29.57 in 10.0 mi SW 6.9 mph - N/A   Mostly Cloudy
11:15 PM 55.4 °F - 35.6 °F 47% 29.56 in 10.0 mi SSW 6.9 mph - N/A   Mostly Cloudy
11:35 PM 53.6 °F - 35.6 °F 51% 29.57 in 10.0 mi SW 4.6 mph - N/A   Partly Cloudy
11:55 PM 53.6 °F - 35.6 °F 51% 29.58 in 10.0 mi WSW 5.8 mph - N/A   Scattered Clouds